Weather History for K1M4 - November, 2011

Change the Weather History Date:

Wednesday, November 23, 2011

  Actual Average (KJFX) Record (KJFX)
Temperature  
Mean Temperature 50 °F -  
Max Temperature 55 °F 60 °F 75 °F (1979)
Min Temperature 43 °F 35 °F 18 °F (1964)
Degree Days  
Heating Degree Days 16    
Moisture  
Dew Point 44 °F    
Average Humidity 80    
Maximum Humidity 97    
Minimum Humidity 64    
Precipitation  
Precipitation 0.00 in - - ()
Sea Level Pressure  
Sea Level Pressure 30.32 in    
Wind  
Wind Speed 8 mph (North)    
Max Wind Speed 14 mph    
Max Gust Speed -    
Visibility 10 miles    
Events      
Averages and records for this station are not official NWS values.
T = Trace of Precipitation, MM = Missing Value Source: NWS Daily Summary

Daily Weather History Graph

Daily Weather History Graph

Search for Another Location

Airport or City:

Trip Planner

Search our weather history database for the weather conditions in past years. The results will help you decide how hot, cold, wet, or windy it might be!

Date:

Astronomy

Nov. 23, 2011 Rise Set
Actual Time 6:30 AM CST 4:42 PM CST
Civil Twilight 6:03 AM CST 5:09 PM CST
Nautical Twilight 5:33 AM CST 5:40 PM CST
Astronomical Twilight 5:03 AM CST 6:10 PM CST
Moon 4:36 AM CST (11/23) 3:22 PM CST (11/23)
Length of Visible Light 11h 05m
Length of Day
10h 11m
Waning Crescent, 3% of the Moon is Illuminated
Nov 23
Waning Crescent
Nov 25
New
Dec 2
First Quarter
Dec 10
Full
Dec 17
Last Quarter

Hourly Weather History & Observations

Time (CST) Temp. Windchill Dew Point Humidity Pressure Visibility Wind Dir Wind Speed Gust Speed Precip Events Conditions
1:56 AM 50.9 °F - 50.0 °F 97% 30.17 in 8.0 mi NNW 6.9 mph - N/A   Overcast
2:56 AM 50.9 °F - 50.0 °F 97% 30.19 in 10.0 mi NNW 5.8 mph - 0.00 in   Overcast
3:56 AM 50.9 °F - 46.9 °F 86% 30.19 in 10.0 mi North 5.8 mph - N/A   Overcast
4:56 AM 50.0 °F - 45.9 °F 86% 30.22 in 10.0 mi NNW 8.1 mph - N/A   Overcast
6:56 AM 48.9 °F - 43.9 °F 83% 30.27 in 10.0 mi NNW 13.8 mph - N/A   Overcast
7:56 AM 47.8 °F - 43.9 °F 86% 30.30 in 10.0 mi NNW 12.7 mph - N/A   Overcast
8:56 AM 47.8 °F - 43.0 °F 83% 30.33 in 10.0 mi North 9.2 mph - N/A   Overcast
9:56 AM 50.0 °F - 43.9 °F 79% 30.33 in 10.0 mi North 11.5 mph - N/A   Overcast
10:56 AM 52.0 °F - 43.9 °F 74% 30.35 in 10.0 mi North 10.4 mph - N/A   Overcast
11:56 AM 52.0 °F - 43.9 °F 74% 30.32 in 10.0 mi NNE 9.2 mph - N/A   Overcast
12:56 PM 55.9 °F - 43.9 °F 64% 30.31 in 10.0 mi NE 10.4 mph - N/A   Mostly Cloudy
1:56 PM 54.9 °F - 43.9 °F 66% 30.32 in 10.0 mi North 11.5 mph - N/A   Overcast
2:56 PM 54.0 °F - 43.9 °F 69% 30.32 in 10.0 mi North 5.8 mph - N/A   Overcast
3:56 PM 52.9 °F - 43.0 °F 69% 30.34 in 10.0 mi North 9.2 mph - N/A   Overcast
4:56 PM 50.9 °F - 43.0 °F 74% 30.35 in 10.0 mi North 3.5 mph - 0.00 in   Overcast
5:56 PM 50.0 °F - 43.0 °F 77% 30.37 in 10.0 mi North 3.5 mph - N/A   Overcast
6:56 PM 48.9 °F - 41.9 °F 77% 30.39 in 10.0 mi NNE 5.8 mph - N/A   Overcast
7:33 PM 46.4 °F 45.2 °F 42.8 °F 87% 30.30 in 10.0 mi NNE 3.5 mph - N/A   Scattered Clouds
7:56 PM 46.9 °F - 41.9 °F 83% 30.39 in 10.0 mi NNE 5.8 mph - N/A   Scattered Clouds
8:18 PM 46.4 °F 44.3 °F 42.8 °F 87% 30.32 in 10.0 mi NNE 4.6 mph - N/A   Mostly Cloudy
9:56 PM 46.9 °F - 41.0 °F 80% 30.42 in 10.0 mi NNE 6.9 mph - N/A   Overcast
10:56 PM 45.9 °F 42.3 °F 41.0 °F 83% 30.42 in 10.0 mi NNE 6.9 mph - N/A   Overcast
11:25 PM 44.6 °F 41.4 °F 39.2 °F 81% 30.33 in 10.0 mi NNE 5.8 mph - N/A   Partly Cloudy
11:56 PM 43.9 °F 41.3 °F 39.9 °F 86% 30.40 in 10.0 mi North 4.6 mph - N/A   Clear